DW9864 Weather Reports


time (UTC)temp
C
wind
direction
speed
KPH
gust
KPH
rain 1hr
cm
rain 24hr
cm
rain mn
cm
humidity
%
barometer
mb
20260502221003 16 200 4.8 14.5 0.00 0.08 0.00 75 1014.0
20260502220503 16 214 4.8 14.5 0.00 0.08 0.00 75 1014.0
20260502220003 16 204 6.4 14.5 0.00 0.08 0.00 75 1014.1
20260502215503 16 198 6.4 14.5 0.00 0.08 0.08 76 1014.1
20260502215003 16 193 4.8 12.9 0.00 0.08 0.08 76 1014.0
20260502214503 16 182 4.8 12.9 0.00 0.08 0.08 77 1014.0
20260502214003 16 181 4.8 12.9 0.00 0.08 0.08 77 1013.9
20260502213503 16 191 4.8 12.9 0.00 0.08 0.08 76 1014.0
20260502213003 16 207 4.8 12.9 0.00 0.08 0.08 76 1014.1
20260502212503 16 209 4.8 11.3 0.00 0.08 0.08 77 1014.1
20260502212017 16 222 6.4 14.5 0.00 0.08 0.08 77 1014.1
20260502211503 16 219 4.8 14.5 0.00 0.08 0.08 78 1014.1
20260502211003 16 204 4.8 11.3 0.03 0.08 0.08 79 1014.2
20260502210503 16 191 4.8 12.9 0.03 0.08 0.08 79 1014.1
20260502210003 16 178 4.8 12.9 0.03 0.08 0.08 80 1014.2
20260502205517 16 175 4.8 16.1 0.03 0.08 0.08 79 1014.2
20260502205017 16 192 4.8 16.1 0.03 0.08 0.08 78 1014.1
20260502204503 16 267 3.2 11.3 0.03 0.08 0.08 78 1014.2
20260502204003 16 230 4.8 11.3 0.03 0.08 0.08 79 1014.1
20260502203503 16 197 4.8 14.5 0.03 0.08 0.08 79 1014.0
20260502203003 16 222 4.8 14.5 0.03 0.08 0.08 79 1014.1
20260502202503 16 243 3.2 11.3 0.03 0.08 0.08 80 1014.0
20260502202003 16 227 3.2 6.4 0.03 0.08 0.08 80 1014.1
20260502201503 16 253 3.2 11.3 0.03 0.08 0.08 79 1014.1
20260502201017 16 305 3.2 11.3 0.00 0.05 0.05 79 1014.0
20260502200503 16 294 3.2 11.3 0.00 0.05 0.05 79 1013.9
20260502200003 16 312 4.8 11.3 0.00 0.05 0.05 78 1013.8
20260502195503 16 312 4.8 11.3 0.00 0.05 0.05 78 1013.7
20260502195003 16 285 3.2 11.3 0.00 0.05 0.05 78 1013.7
20260502194503 16 252 3.2 11.3 0.00 0.05 0.05 78 1013.9
20260502194003 16 241 4.8 11.3 0.00 0.05 0.05 78 1014.1
20260502193503 16 228 4.8 11.3 0.00 0.05 0.05 79 1014.0
20260502193003 16 265 4.8 14.5 0.00 0.05 0.05 80 1014.2
20260502192503 16 292 4.8 14.5 0.00 0.05 0.05 80 1014.3
20260502192003 16 304 4.8 11.3 0.00 0.05 0.05 80 1014.3
20260502191503 16 312 6.4 11.3 0.00 0.05 0.05 81 1014.2
20260502191017 16 314 4.8 11.3 0.00 0.05 0.05 81 1014.4
20260502190503 16 322 1.6 8.0 0.00 0.05 0.05 81 1014.3
20260502190004 17 330 1.6 6.4 0.00 0.05 0.05 81 1014.3
20260502185503 17 330 3.2 8.0 0.00 0.05 0.05 79 1014.3
20260502185003 17 328 3.2 11.3 0.00 0.05 0.05 78 1014.4
20260502184503 17 320 3.2 11.3 0.00 0.05 0.05 78 1014.4
20260502184003 17 315 4.8 12.9 0.00 0.05 0.05 77 1014.4
20260502183503 17 260 3.2 12.9 0.00 0.05 0.05 77 1014.4
20260502183003 17 189 3.2 11.3 0.00 0.05 0.05 77 1014.3
20260502182503 17 227 4.8 16.1 0.00 0.05 0.05 77 1014.3
20260502182003 17 241 4.8 16.1 0.00 0.05 0.05 77 1014.3
20260502181503 17 256 4.8 12.9 0.00 0.05 0.05 78 1014.3
20260502181003 17 268 3.2 9.7 0.00 0.05 0.05 79 1014.3
20260502180503 17 261 3.2 9.7 0.00 0.05 0.05 81 1014.3
20260502170503 17 290 0.0 1.6 0.05 0.05 0.05 83 1014.2
20260502164003 17 254 1.6 9.7 0.05 0.05 0.05 81 1014.6
20260502163503 17 239 3.2 9.7 0.05 0.05 0.05 81 1014.6
20260502163003 17 229 4.8 9.7 0.05 0.05 0.05 81 1014.9
20260502162503 17 202 4.8 9.7 0.05 0.05 0.05 81 1014.6
20260502162003 17 188 6.4 12.9 0.05 0.05 0.05 80 1014.9
20260502161503 17 208 4.8 12.9 0.05 0.05 0.05 78 1014.7
20260502161003 18 286 3.2 6.4 0.05 0.05 0.05 77 1014.8
20260502160503 18 316 6.4 16.1 0.03 0.03 0.03 75 1014.9
20260502152003 18 186 1.6 3.2 0.00 0.00 0.00 78 1015.1
20260502151503 18 186 1.6 3.2 0.00 0.00 0.00 77 1015.1
20260502151017 18 186 1.6 3.2 0.00 0.00 0.00 76 1015.1
20260502150517 18 186 0.0 3.2 0.00 0.00 0.00 76 1015.2
20260502130503 17 163 6.4 17.7 0.00 0.00 0.00 79 1016.6
20260502123503 17 120 4.8 11.3 0.00 0.00 0.00 86 1016.5
20260502123003 17 128 3.2 11.3 0.00 0.00 0.00 86 1016.7
20260502122503 17 159 1.6 11.3 0.00 0.00 0.00 85 1016.8
20260502122003 17 160 1.6 6.4 0.00 0.00 0.00 85 1016.9
20260502121503 17 138 1.6 8.0 0.00 0.00 0.00 84 1017.1
20260502121003 17 143 3.2 8.0 0.00 0.00 0.00 84 1017.3
20260502120503 17 351 1.6 6.4 0.00 0.00 0.00 84 1017.3
20260502115503 17 30 1.6 6.4 0.00 0.00 0.00 83 1017.5
20260502115003 17 29 1.6 8.0 0.00 0.00 0.00 83 1017.4
20260502114503 17 346 3.2 14.5 0.00 0.00 0.00 83 1017.5
20260502114003 17 330 3.2 14.5 0.00 0.00 0.00 83 1017.5
20260502113503 17 331 1.6 12.9 0.00 0.00 0.00 83 1017.6
20260502113003 17 316 3.2 14.5 0.00 0.00 0.00 84 1017.6
20260502112503 17 320 6.4 19.3 0.00 0.00 0.00 84 1017.6
20260502112003 17 327 9.7 20.9 0.00 0.00 0.00 84 1017.6
20260502111503 16 328 9.7 22.5 0.00 0.00 0.00 84 1017.5
20260502111017 16 323 9.7 22.5 0.00 0.00 0.00 84 1017.5
20260502110517 17 323 11.3 24.1 0.00 0.00 0.00 84 1017.6
20260502110017 17 323 16.1 25.7 0.00 0.00 0.00 83 1017.6
20260502105503 17 322 16.1 33.8 0.00 0.00 0.00 82 1017.6
20260502105003 17 324 17.7 33.8 0.00 0.00 0.00 80 1017.5
20260502104503 17 320 17.7 32.2 0.00 0.00 0.00 77 1017.6
20260502104003 18 312 14.5 29.0 0.00 0.00 0.00 72 1017.7
20260502103503 20 302 8.0 25.7 0.00 0.00 0.00 68 1017.9
20260502103003 20 243 8.0 19.3 0.00 0.00 0.00 62 1017.6
20260502102503 20 189 11.3 30.6 0.00 0.00 0.00 61 1017.6
20260502101503 20 196 11.3 29.0 0.00 0.00 0.00 62 1017.6
20260502101003 20 196 14.5 41.8 0.00 0.00 0.00 62 1017.5
20260502100503 20 190 17.7 41.8 0.00 0.00 0.00 62 1017.2
20260502091503 20 190 14.5 32.2 0.00 0.00 0.00 63 1016.7
20260502091003 20 205 12.9 24.1 0.00 0.00 0.00 63 1016.9
20260502090503 20 197 14.5 29.0 0.00 0.00 0.00 63 1017.0
20260502071503 19 183 17.7 40.2 0.00 0.00 0.00 63 1017.0
20260502071003 19 182 19.3 40.2 0.00 0.00 0.00 63 1017.0
20260502070503 19 183 20.9 38.6 0.00 0.00 0.00 63 1016.9
20260502070017 19 182 22.5 46.7 0.00 0.00 0.00 63 1017.1
20260502065503 19 186 19.3 46.7 0.00 0.00 0.00 63 1017.0
20260502065003 19 197 20.9 38.6 0.00 0.00 0.00 63 1017.1
20260502064504 20 197 22.5 45.1 0.00 0.00 0.00 62 1017.0
20260502064003 19 195 20.9 45.1 0.00 0.00 0.00 62 1016.9
20260502063503 20 195 20.9 37.0 0.00 0.00 0.00 62 1016.8
20260502063003 20 185 22.5 45.1 0.00 0.00 0.00 62 1016.6
20260502062503 20 177 24.1 49.9 0.00 0.00 0.00 62 1016.8
20260502062003 20 187 25.7 49.9 0.00 0.00 0.00 62 1016.6
20260502061503 20 194 24.1 46.7 0.00 0.00 0.00 62 1016.7
20260502061003 20 193 22.5 51.5 0.00 0.00 0.00 62 1016.5
20260502060503 20 184 22.5 51.5 0.00 0.00 0.00 62 1016.6
20260502060017 20 177 17.7 40.2 0.00 0.00 0.00 62 1016.5
20260502055517 19 183 14.5 33.8 0.00 0.00 0.00 62 1016.6
20260502055003 19 186 14.5 32.2 0.00 0.00 0.00 62 1016.6
20260502054503 19 178 14.5 33.8 0.00 0.00 0.00 62 1016.6
20260502054003 19 183 16.1 33.8 0.00 0.00 0.00 62 1016.6
20260502053503 19 195 19.3 48.3 0.00 0.00 0.00 61 1016.7
20260502053003 20 194 19.3 48.3 0.00 0.00 0.00 61 1016.7
20260502052503 20 199 16.1 37.0 0.00 0.00 0.00 61 1016.6
20260502052003 20 196 17.7 37.0 0.00 0.00 0.00 61 1016.5
20260502051503 20 190 20.9 43.5 0.00 0.00 0.00 61 1016.5
20260502051003 20 185 17.7 43.5 0.00 0.00 0.00 61 1016.3
20260502050517 20 182 14.5 30.6 0.00 0.00 0.00 61 1016.5
20260502050003 20 180 17.7 46.7 0.00 0.00 0.00 61 1016.4
20260502045503 20 182 19.3 46.7 0.00 0.00 0.00 60 1016.3
20260502045003 20 186 17.7 32.2 0.00 0.00 0.00 60 1016.4
20260502044504 20 182 19.3 46.7 0.00 0.00 0.00 60 1016.2
20260502044017 20 184 20.9 46.7 0.00 0.00 0.00 60 1016.5
20260502043503 20 193 19.3 38.6 0.00 0.00 0.00 59 1016.7
20260502043003 20 191 19.3 37.0 0.00 0.00 0.00 59 1016.4
20260502042503 20 179 19.3 37.0 0.00 0.00 0.00 59 1016.3
20260502042003 20 181 17.7 37.0 0.00 0.00 0.00 59 1016.4
20260502041503 20 185 16.1 37.0 0.00 0.00 0.00 59 1016.3
20260502041017 20 187 16.1 37.0 0.00 0.00 0.00 59 1016.0
20260502040503 20 190 16.1 33.8 0.00 0.00 0.00 59 1016.2
20260502040017 20 180 17.7 37.0 0.00 0.00 0.00 59 1016.2
20260502035517 20 176 20.9 48.3 0.00 0.00 0.00 58 1016.1
20260502035017 20 177 22.5 48.3 0.00 0.00 0.00 58 1016.2
20260502034503 20 168 20.9 43.5 0.00 0.00 0.00 58 1016.5
20260502034004 20 171 20.9 43.5 0.00 0.00 0.00 58 1016.3
20260502033517 20 179 20.9 51.5 0.00 0.00 0.00 58 1016.2
20260502033003 20 180 20.9 51.5 0.00 0.00 0.00 58 1016.3
20260502032503 20 184 19.3 38.6 0.00 0.00 0.00 58 1016.3
20260502032003 20 190 17.7 35.4 0.00 0.00 0.00 58 1016.4
20260502031517 20 188 20.9 45.1 0.00 0.00 0.00 58 1016.4
20260502031003 20 184 20.9 45.1 0.00 0.00 0.00 57 1016.5
20260502030503 20 177 20.9 46.7 0.00 0.00 0.00 57 1016.6
20260502030017 20 170 22.5 46.7 0.00 0.00 0.00 57 1016.4
20260502025503 20 174 22.5 43.5 0.00 0.00 0.00 56 1016.4
20260502025003 20 179 20.9 48.3 0.00 0.00 0.00 56 1016.5
20260502024503 20 179 20.9 48.3 0.00 0.00 0.00 56 1016.6
20260502024003 20 179 22.5 48.3 0.00 0.00 0.00 56 1016.4
20260502023503 20 185 20.9 48.3 0.00 0.00 0.00 55 1016.4
20260502023003 20 194 19.3 37.0 0.00 0.00 0.00 55 1016.3
20260502022503 20 192 19.3 37.0 0.00 0.00 0.00 55 1016.4
20260502022003 20 180 19.3 37.0 0.00 0.00 0.00 55 1016.4
20260502021503 20 177 17.7 33.8 0.00 0.00 0.00 55 1016.3
20260502021017 20 185 17.7 30.6 0.00 0.00 0.00 55 1016.5
20260502020517 20 185 17.7 41.8 0.00 0.00 0.00 55 1016.3
20260502020003 20 189 20.9 41.8 0.00 0.00 0.00 55 1016.3
20260502015503 20 188 19.3 40.2 0.00 0.00 0.00 55 1016.4
20260502015003 20 180 16.1 30.6 0.00 0.00 0.00 56 1016.2
20260502014503 20 189 16.1 29.0 0.00 0.00 0.00 55 1016.3
20260502014003 20 191 16.1 41.8 0.00 0.00 0.00 55 1016.4
20260502013503 20 183 17.7 41.8 0.00 0.00 0.00 55 1016.4
20260502013017 20 180 17.7 38.6 0.00 0.00 0.00 56 1016.4
20260502012503 20 177 16.1 38.6 0.00 0.00 0.00 56 1016.3
20260502012003 20 180 14.5 35.4 0.00 0.00 0.00 56 1016.3
20260502011503 20 177 16.1 32.2 0.00 0.00 0.00 56 1016.6
20260502011003 20 181 17.7 30.6 0.00 0.00 0.00 56 1016.5
20260502010517 20 182 16.1 29.0 0.00 0.00 0.00 56 1016.5
20260502010017 20 175 16.1 29.0 0.00 0.00 0.00 56 1016.6
20260502005503 21 182 14.5 29.0 0.00 0.00 0.00 56 1016.7
20260502005003 21 178 14.5 35.4 0.00 0.00 0.00 56 1016.9
20260502004503 21 169 16.1 35.4 0.00 0.00 0.00 56 1016.9
20260502004003 21 177 16.1 32.2 0.00 0.00 0.00 55 1017.0
20260502003503 21 188 14.5 29.0 0.00 0.00 0.00 55 1017.2
20260502003003 21 184 17.7 33.8 0.00 0.00 0.00 55 1017.3
20260502002503 21 178 17.7 33.8 0.00 0.00 0.00 55 1017.5
20260502002003 21 173 16.1 30.6 0.00 0.00 0.00 55 1017.2
20260502001517 21 172 16.1 32.2 0.00 0.00 0.00 55 1017.3
20260502001003 21 170 16.1 32.2 0.00 0.00 0.00 55 1017.5
20260502000503 21 169 16.1 32.2 0.00 0.00 0.00 55 1017.6
20260502000003 21 175 17.7 33.8 0.00 0.00 0.00 55 1017.4
20260501235503 21 179 19.3 33.8 0.00 0.00 0.00 55 1017.6
20260501235003 21 182 19.3 40.2 0.00 0.00 0.00 55 1017.8
20260501234503 21 187 19.3 40.2 0.00 0.00 0.00 54 1017.8
20260501234003 21 193 17.7 38.6 0.00 0.00 0.00 55 1018.0
20260501233503 21 186 16.1 38.6 0.00 0.00 0.00 55 1017.8
20260501233003 21 180 17.7 35.4 0.00 0.00 0.00 54 1017.8
20260501232503 21 189 17.7 35.4 0.00 0.00 0.00 54 1017.7
20260501232003 21 192 16.1 33.8 0.00 0.00 0.00 54 1017.7
20260501231503 21 184 17.7 37.0 0.00 0.00 0.00 54 1017.7
20260501231017 21 175 17.7 37.0 0.00 0.00 0.00 54 1017.8
20260501230503 21 177 16.1 35.4 0.00 0.00 0.00 54 1017.8
20260501230003 21 185 14.5 29.0 0.00 0.00 0.00 54 1017.8
20260501225503 21 187 14.5 25.7 0.00 0.00 0.00 55 1017.8
20260501225003 21 186 12.9 25.7 0.00 0.00 0.00 55 1017.9
20260501224503 21 184 16.1 37.0 0.00 0.00 0.00 54 1017.9
20260501224003 21 183 17.7 37.0 0.00 0.00 0.00 54 1017.9
20260501223503 21 183 14.5 32.2 0.00 0.00 0.00 54 1017.9
20260501223017 21 181 12.9 30.6 0.00 0.00 0.00 55 1017.9
20260501222517 21 177 14.5 32.2 0.00 0.00 0.00 55 1018.0
20260501222003 21 174 12.9 32.2 0.00 0.00 0.00 55 1017.9
20260501221503 21 177 12.9 27.4 0.00 0.00 0.00 55 1018.0